This is the latest recevied weather packets stored in our database for station/object WBGG. If no packets are shown the sender has not sent any weather packets the latest 1 day(s).
| Time | Temp. | Humidity | Pressure | Rain* | Wind** | Luminosity | Snow |
|---|---|---|---|---|---|---|---|
| 1778013592 | 25° C | 94% | 1007 hPa | - | 1.34 m/s, 240° | - | - |
| 1778011808 | 25° C | 94% | 1008 hPa | - | 0.45 m/s, 0° | - | - |
| 1778010001 | 25° C | 94% | 1007 hPa | - | 1.34 m/s, 250° | - | - |
| 1778008207 | 25° C | 94% | 1008 hPa | - | 1.34 m/s, 250° | - | - |
| 1778006392 | 25° C | 94% | 1008 hPa | - | 1.79 m/s, 250° | - | - |
| 1778004615 | 25° C | 94% | 1008 hPa | - | 2.24 m/s, 250° | - | - |
| 1778002789 | 25° C | 94% | 1009 hPa | - | 1.79 m/s, 250° | - | - |
| 1778001006 | 25° C | 94% | 1009 hPa | - | 1.34 m/s, 0° | - | - |
| 1777999189 | 25° C | 94% | 1009 hPa | - | 1.34 m/s, 0° | - | - |
| 1777997407 | 25° C | 94% | 1010 hPa | - | 1.34 m/s, 0° | - | - |
| 1777995589 | 25° C | 94% | 1010 hPa | - | 0.89 m/s, 0° | - | - |
| 1777995006 | 25° C | 94% | 1010 hPa | - | 1.34 m/s, 0° | - | - |
| 1777994423 | 25° C | 98% | 1010.8 hPa | - | 0.89 m/s, 231° | - | - |
| 1777993806 | 25° C | 94% | 1010 hPa | - | 1.34 m/s, 0° | - | - |
| 1777991990 | 25.56° C | 88% | 1010 hPa | - | 1.79 m/s, 250° | - | - |
| 1777990208 | 25.56° C | 88% | 1010 hPa | - | 1.34 m/s, 0° | - | - |
| 1777988388 | 25.56° C | 88% | 1009 hPa | - | 2.24 m/s, 250° | - | - |
| 1777986616 | 26.67° C | 83% | 1009 hPa | - | 3.58 m/s, 210° | - | - |
| 1777984788 | 26.67° C | 88% | 1009 hPa | - | 3.58 m/s, 190° | - | - |
| 1777983015 | 27.78° C | 83% | 1008 hPa | - | 4.02 m/s, 220° | - | - |
| 1777981188 | 28.89° C | 79% | 1007 hPa | - | 1.34 m/s, 0° | - | - |
| 1777979988 | 28.89° C | 79% | 1007 hPa | - | 1.34 m/s, 350° | - | - |
| 1777979408 | 28.89° C | 79% | 1007 hPa | - | 1.34 m/s, 350° | - | - |
| 1777977590 | 30° C | 74% | 1006 hPa | - | 1.34 m/s, 60° | - | - |
| 1777975808 | 30° C | 74% | 1006 hPa | - | 1.34 m/s, 40° | - | - |
* Rain since midnight (hover to see other rain measurements)
** Current wind speed in m/s (hover to see current wind gust speed)